Time,TemperatureF,DewpointF,PressureIn,WindDirection,WindDirectionDegrees,WindSpeedMPH,WindSpeedGustMPH,Humidity,HourlyPrecipIn,Conditions,Clouds,dailyrainin,SoftwareType,DateUTC
2013-01-18 00:03:00,19.0,18.0,30.42,WSW,247,3.0,6.0,94,0.00,,,0.00,,2013-01-18 05:03:00,
2013-01-18 00:12:00,19.0,18.0,30.42,WSW,247,3.0,6.0,94,0.00,,,0.00,,2013-01-18 05:12:00,
2013-01-18 00:22:00,19.0,18.0,30.44,West,270,5.0,8.0,94,0.00,,,0.00,,2013-01-18 05:22:00,
2013-01-18 00:33:00,20.0,18.0,30.42,WSW,247,4.0,12.0,92,0.00,,,0.00,,2013-01-18 05:33:00,
2013-01-18 00:42:00,20.0,18.0,30.42,WSW,247,4.0,12.0,92,0.00,,,0.00,,2013-01-18 05:42:00,
2013-01-18 00:53:00,20.0,18.0,30.43,WSW,247,5.0,5.0,91,0.00,,,0.00,,2013-01-18 05:53:00,
2013-01-18 01:02:00,20.0,18.0,30.43,West,270,5.0,10.0,90,0.00,,,0.00,,2013-01-18 06:02:00,
2013-01-18 01:12:00,20.0,18.0,30.43,West,270,5.0,10.0,90,0.00,,,0.00,,2013-01-18 06:12:00,
2013-01-18 01:22:00,20.0,17.0,30.43,WSW,247,6.0,8.0,89,0.00,,,0.00,,2013-01-18 06:22:00,
2013-01-18 01:33:00,20.0,18.0,30.43,West,270,2.0,5.0,90,0.00,,,0.00,,2013-01-18 06:33:00,
2013-01-18 01:43:00,20.0,18.0,30.43,West,270,2.0,5.0,90,0.00,,,0.00,,2013-01-18 06:43:00,
2013-01-18 01:52:00,20.0,18.0,30.45,South,180,2.0,9.0,92,0.00,,,0.00,,2013-01-18 06:52:00,
2013-01-18 02:02:00,20.0,18.0,30.45,WSW,247,4.0,7.0,93,0.00,,,0.00,,2013-01-18 07:02:00,
2013-01-18 02:12:00,20.0,18.0,30.45,WSW,247,4.0,7.0,93,0.00,,,0.00,,2013-01-18 07:12:00,
2013-01-18 02:22:00,20.0,18.0,30.45,WSW,247,5.0,7.0,92,0.00,,,0.00,,2013-01-18 07:22:00,
2013-01-18 02:32:00,20.0,18.0,30.46,West,270,3.0,5.0,93,0.00,,,0.00,,2013-01-18 07:32:00,
2013-01-18 02:42:00,20.0,18.0,30.46,West,270,3.0,5.0,93,0.00,,,0.00,,2013-01-18 07:42:00,
2013-01-18 02:52:00,20.0,18.0,30.47,SSW,202,3.0,3.0,93,0.00,,,0.00,,2013-01-18 07:52:00,
2013-01-18 03:02:00,21.0,19.0,30.47,WSW,247,3.0,4.0,91,0.00,,,0.00,,2013-01-18 08:02:00,
2013-01-18 03:12:00,21.0,19.0,30.47,WSW,247,3.0,4.0,91,0.00,,,0.00,,2013-01-18 08:12:00,
2013-01-18 03:22:00,20.0,18.0,30.47,WSW,247,4.0,6.0,93,0.00,,,0.00,,2013-01-18 08:22:00,
2013-01-18 03:32:00,19.0,18.0,30.47,WSW,247,1.0,4.0,95,0.00,,,0.00,,2013-01-18 08:32:00,
2013-01-18 03:42:00,19.0,18.0,30.47,WSW,247,1.0,4.0,95,0.00,,,0.00,,2013-01-18 08:42:00,
2013-01-18 03:52:00,19.0,18.0,30.47,WSW,247,0.0,4.0,96,0.00,,,0.00,,2013-01-18 08:52:00,
2013-01-18 04:02:00,19.0,18.0,30.47,WSW,247,0.0,0.0,96,0.00,,,0.00,,2013-01-18 09:02:00,
2013-01-18 04:12:00,19.0,18.0,30.47,WSW,247,0.0,0.0,96,0.00,,,0.00,,2013-01-18 09:12:00,
2013-01-18 04:22:00,18.0,17.0,30.47,WSW,247,3.0,5.0,96,0.00,,,0.00,,2013-01-18 09:22:00,
2013-01-18 04:33:00,18.0,17.0,30.47,WSW,247,3.0,3.0,97,0.00,,,0.00,,2013-01-18 09:33:00,
2013-01-18 04:42:00,18.0,17.0,30.47,WSW,247,3.0,3.0,97,0.00,,,0.00,,2013-01-18 09:42:00,
2013-01-18 04:52:00,18.0,17.0,30.47,SW,225,2.0,4.0,96,0.00,,,0.00,,2013-01-18 09:52:00,
2013-01-18 05:02:00,18.0,17.0,30.47,WSW,247,2.0,4.0,96,0.00,,,0.00,,2013-01-18 10:02:00,
2013-01-18 05:12:00,18.0,17.0,30.47,WSW,247,2.0,4.0,96,0.00,,,0.00,,2013-01-18 10:12:00,
2013-01-18 05:22:00,18.0,17.0,30.47,WSW,247,2.0,3.0,96,0.00,,,0.00,,2013-01-18 10:22:00,
2013-01-18 05:32:00,18.0,17.0,30.47,WSW,247,2.0,3.0,95,0.00,,,0.00,,2013-01-18 10:32:00,
2013-01-18 05:42:00,18.0,17.0,30.47,WSW,247,2.0,3.0,95,0.00,,,0.00,,2013-01-18 10:42:00,
2013-01-18 05:52:00,17.0,16.0,30.47,SW,225,1.0,4.0,97,0.00,,,0.00,,2013-01-18 10:52:00,
2013-01-18 06:02:00,17.0,17.0,30.47,SW,225,1.0,3.0,98,0.00,,,0.00,,2013-01-18 11:02:00,
2013-01-18 06:12:00,17.0,17.0,30.47,SW,225,1.0,3.0,98,0.00,,,0.00,,2013-01-18 11:12:00,
2013-01-18 06:23:00,18.0,17.0,30.47,WSW,247,3.0,6.0,96,0.00,,,0.00,,2013-01-18 11:23:00,
2013-01-18 06:32:00,17.0,16.0,30.49,WSW,247,2.0,3.0,97,0.00,,,0.00,,2013-01-18 11:32:00,
2013-01-18 06:42:00,17.0,16.0,30.49,WSW,247,2.0,3.0,97,0.00,,,0.00,,2013-01-18 11:42:00,
2013-01-18 06:52:00,18.0,17.0,30.50,WSW,247,2.0,6.0,96,0.00,,,0.00,,2013-01-18 11:52:00,
2013-01-18 07:03:00,18.0,17.0,30.47,SW,225,2.0,6.0,96,0.00,,,0.00,,2013-01-18 12:03:00,
2013-01-18 07:12:00,18.0,17.0,30.47,SW,225,2.0,6.0,96,0.00,,,0.00,,2013-01-18 12:12:00,
2013-01-18 07:22:00,18.0,17.0,30.49,WSW,247,3.0,5.0,96,0.00,,,0.00,,2013-01-18 12:22:00,
2013-01-18 07:33:00,18.0,17.0,30.49,WSW,247,1.0,6.0,96,0.00,,,0.00,,2013-01-18 12:33:00,
2013-01-18 07:43:00,18.0,17.0,30.49,WSW,247,1.0,6.0,96,0.00,,,0.00,,2013-01-18 12:43:00,
2013-01-18 07:52:00,18.0,17.0,30.51,SW,225,2.0,4.0,96,0.00,,,0.00,,2013-01-18 12:52:00,
2013-01-18 08:03:00,18.0,17.0,30.49,WSW,247,3.0,7.0,95,0.00,,,0.00,,2013-01-18 13:03:00,
2013-01-18 08:12:00,18.0,17.0,30.49,WSW,247,3.0,7.0,95,0.00,,,0.00,,2013-01-18 13:12:00,
2013-01-18 08:23:00,18.0,17.0,30.49,SW,225,2.0,3.0,96,0.00,,,0.00,,2013-01-18 13:23:00,
2013-01-18 08:33:00,19.0,18.0,30.50,SSW,202,3.0,4.0,97,0.00,,,0.00,,2013-01-18 13:33:00,
2013-01-18 08:43:00,19.0,18.0,30.50,SSW,202,3.0,4.0,97,0.00,,,0.00,,2013-01-18 13:43:00,
2013-01-18 08:53:00,19.0,18.0,30.50,SW,225,1.0,3.0,97,0.00,,,0.00,,2013-01-18 13:53:00,
2013-01-18 09:03:00,19.0,18.0,30.50,WSW,247,3.0,4.0,96,0.00,,,0.00,,2013-01-18 14:03:00,
2013-01-18 09:12:00,19.0,18.0,30.50,WSW,247,3.0,4.0,96,0.00,,,0.00,,2013-01-18 14:12:00,
2013-01-18 09:23:00,19.0,18.0,30.51,SW,225,1.0,0.0,97,0.00,,,0.00,,2013-01-18 14:23:00,
2013-01-18 09:33:00,20.0,19.0,30.50,South,180,0.0,0.0,97,0.00,,,0.00,,2013-01-18 14:33:00,
2013-01-18 09:42:00,20.0,19.0,30.50,South,180,0.0,0.0,97,0.00,,,0.00,,2013-01-18 14:42:00,
2013-01-18 09:53:00,22.0,20.0,30.49,SW,225,1.0,7.0,90,0.00,,,0.00,,2013-01-18 14:53:00,
2013-01-18 10:03:00,22.0,19.0,30.49,WSW,247,4.0,5.0,88,0.00,,,0.00,,2013-01-18 15:03:00,
2013-01-18 10:13:00,22.0,19.0,30.49,WSW,247,4.0,5.0,88,0.00,,,0.00,,2013-01-18 15:13:00,
2013-01-18 10:23:00,23.0,20.0,30.51,SW,225,2.0,3.0,87,0.00,,,0.00,,2013-01-18 15:23:00,
2013-01-18 10:33:00,23.0,19.0,30.47,WSW,247,3.0,8.0,85,0.00,,,0.00,,2013-01-18 15:33:00,
2013-01-18 10:43:00,23.0,19.0,30.47,WSW,247,3.0,8.0,85,0.00,,,0.00,,2013-01-18 15:43:00,
2013-01-18 10:53:00,24.0,20.0,30.47,West,270,4.0,7.0,83,0.00,,,0.00,,2013-01-18 15:53:00,
2013-01-18 11:03:00,25.0,20.0,30.47,WSW,247,3.0,5.0,81,0.00,,,0.00,,2013-01-18 16:03:00,
2013-01-18 11:12:00,25.0,20.0,30.47,WSW,247,3.0,5.0,81,0.00,,,0.00,,2013-01-18 16:12:00,
2013-01-18 11:23:00,25.0,20.0,30.47,SW,225,6.0,7.0,80,0.00,,,0.00,,2013-01-18 16:23:00,
2013-01-18 11:33:00,26.0,20.0,30.46,WSW,247,5.0,8.0,77,0.00,,,0.00,,2013-01-18 16:33:00,
2013-01-18 11:42:00,26.0,20.0,30.46,WSW,247,5.0,8.0,77,0.00,,,0.00,,2013-01-18 16:42:00,
2013-01-18 11:52:00,28.0,21.0,30.45,SW,225,4.0,5.0,75,0.00,,,0.00,,2013-01-18 16:52:00,
2013-01-18 12:03:00,28.0,20.0,30.45,SW,225,4.0,6.0,73,0.00,,,0.00,,2013-01-18 17:03:00,
2013-01-18 12:13:00,28.0,20.0,30.45,SW,225,4.0,6.0,73,0.00,,,0.00,,2013-01-18 17:13:00,
2013-01-18 12:23:00,29.0,21.0,30.42,South,180,4.0,9.0,73,0.00,,,0.00,,2013-01-18 17:23:00,
2013-01-18 12:33:00,29.0,21.0,30.43,SSW,202,7.0,11.0,72,0.00,,,0.00,,2013-01-18 17:33:00,
2013-01-18 12:43:00,29.0,21.0,30.43,SSW,202,7.0,11.0,72,0.00,,,0.00,,2013-01-18 17:43:00,
2013-01-18 12:53:00,30.0,22.0,30.39,SW,225,7.0,7.0,72,0.00,,,0.00,,2013-01-18 17:53:00,
2013-01-18 13:03:00,30.0,22.0,30.38,SW,225,5.0,9.0,72,0.00,,,0.00,,2013-01-18 18:03:00,
2013-01-18 13:13:00,30.0,22.0,30.38,SW,225,5.0,9.0,72,0.00,,,0.00,,2013-01-18 18:13:00,
2013-01-18 13:23:00,31.0,22.0,30.38,SW,225,5.0,7.0,69,0.00,,,0.00,,2013-01-18 18:23:00,
2013-01-18 13:33:00,32.0,22.0,30.36,SW,225,7.0,10.0,67,0.00,,,0.00,,2013-01-18 18:33:00,
2013-01-18 13:43:00,32.0,22.0,30.36,SW,225,7.0,10.0,67,0.00,,,0.00,,2013-01-18 18:43:00,
2013-01-18 13:52:00,33.0,22.0,30.35,SSE,157,5.0,5.0,64,0.00,,,0.00,,2013-01-18 18:52:00,
2013-01-18 14:03:00,33.0,22.0,30.33,SW,225,6.0,15.0,64,0.00,,,0.00,,2013-01-18 19:03:00,
2013-01-18 14:13:00,33.0,22.0,30.33,SW,225,6.0,15.0,64,0.00,,,0.00,,2013-01-18 19:13:00,
2013-01-18 14:23:00,34.0,23.0,30.31,SW,225,6.0,10.0,64,0.00,,,0.00,,2013-01-18 19:23:00,
2013-01-18 14:33:00,34.0,23.0,30.31,SW,225,5.0,10.0,63,0.00,,,0.00,,2013-01-18 19:33:00,
2013-01-18 14:43:00,34.0,23.0,30.31,SW,225,5.0,10.0,63,0.00,,,0.00,,2013-01-18 19:43:00,
2013-01-18 14:52:00,34.0,22.0,30.29,SW,225,7.0,14.0,62,0.00,,,0.00,,2013-01-18 19:52:00,
2013-01-18 15:03:00,34.0,22.0,30.29,SW,225,5.0,12.0,62,0.00,,,0.00,,2013-01-18 20:03:00,
2013-01-18 15:13:00,34.0,22.0,30.29,SW,225,5.0,12.0,62,0.00,,,0.00,,2013-01-18 20:13:00,
2013-01-18 15:23:00,34.0,22.0,30.28,SW,225,6.0,7.0,62,0.00,,,0.00,,2013-01-18 20:23:00,
2013-01-18 15:33:00,35.0,23.0,30.26,SW,225,6.0,8.0,60,0.00,,,0.00,,2013-01-18 20:33:00,
2013-01-18 15:43:00,35.0,23.0,30.26,SW,225,6.0,8.0,60,0.00,,,0.00,,2013-01-18 20:43:00,
2013-01-18 15:52:00,36.0,23.0,30.25,SW,225,6.0,9.0,60,0.00,,,0.00,,2013-01-18 20:52:00,
2013-01-18 16:03:00,36.0,23.0,30.24,SSW,202,6.0,7.0,58,0.00,,,0.00,,2013-01-18 21:03:00,
2013-01-18 16:13:00,36.0,23.0,30.24,SSW,202,6.0,7.0,58,0.00,,,0.00,,2013-01-18 21:13:00,
2013-01-18 16:23:00,36.0,22.0,30.24,WSW,247,7.0,16.0,56,0.00,,,0.00,,2013-01-18 21:23:00,
2013-01-18 16:33:00,37.0,23.0,30.23,SW,225,7.0,8.0,56,0.00,,,0.00,,2013-01-18 21:33:00,
2013-01-18 16:43:00,37.0,23.0,30.23,SW,225,7.0,8.0,56,0.00,,,0.00,,2013-01-18 21:43:00,
2013-01-18 16:52:00,37.0,23.0,30.24,SW,225,5.0,6.0,56,0.00,,,0.00,,2013-01-18 21:52:00,
2013-01-18 17:03:00,36.0,22.0,30.23,WSW,247,5.0,9.0,56,0.00,,,0.00,,2013-01-18 22:03:00,
2013-01-18 17:12:00,36.0,22.0,30.23,WSW,247,5.0,9.0,56,0.00,,,0.00,,2013-01-18 22:12:00,
2013-01-18 17:23:00,36.0,23.0,30.21,WSW,247,5.0,7.0,58,0.00,,,0.00,,2013-01-18 22:23:00,
2013-01-18 17:33:00,35.0,23.0,30.21,SW,225,6.0,12.0,60,0.00,,,0.00,,2013-01-18 22:33:00,
2013-01-18 17:43:00,35.0,23.0,30.21,SW,225,6.0,12.0,60,0.00,,,0.00,,2013-01-18 22:43:00,
2013-01-18 17:52:00,34.0,22.0,30.21,SW,225,4.0,5.0,61,0.00,,,0.00,,2013-01-18 22:52:00,
2013-01-18 18:03:00,33.0,21.0,30.20,SW,225,7.0,14.0,62,0.00,,,0.00,,2013-01-18 23:03:00,
2013-01-18 18:12:00,33.0,21.0,30.20,SW,225,7.0,14.0,62,0.00,,,0.00,,2013-01-18 23:12:00,
2013-01-18 18:22:00,33.0,22.0,30.20,SW,225,3.0,4.0,63,0.00,,,0.00,,2013-01-18 23:22:00,
2013-01-18 18:33:00,32.0,22.0,30.19,SSW,202,4.0,15.0,67,0.00,,,0.00,,2013-01-18 23:33:00,
2013-01-18 18:43:00,32.0,22.0,30.19,SSW,202,4.0,15.0,67,0.00,,,0.00,,2013-01-18 23:43:00,
2013-01-18 18:52:00,32.0,23.0,30.19,WSW,247,2.0,8.0,68,0.00,,,0.00,,2013-01-18 23:52:00,
2013-01-18 19:02:00,32.0,23.0,30.19,South,180,3.0,7.0,69,0.00,,,0.00,,2013-01-19 00:02:00,
2013-01-18 19:12:00,32.0,23.0,30.19,South,180,3.0,7.0,69,0.00,,,0.00,,2013-01-19 00:12:00,
2013-01-18 19:22:00,32.0,23.0,30.18,SW,225,5.0,8.0,70,0.00,,,0.00,,2013-01-19 00:22:00,
2013-01-18 19:33:00,32.0,23.0,30.19,South,180,5.0,10.0,70,0.00,,,0.00,,2013-01-19 00:33:00,
2013-01-18 19:43:00,32.0,23.0,30.19,South,180,5.0,10.0,70,0.00,,,0.00,,2013-01-19 00:43:00,
2013-01-18 19:53:00,32.0,23.0,30.16,WSW,247,5.0,10.0,70,0.00,,,0.00,,2013-01-19 00:53:00,
2013-01-18 20:02:00,33.0,23.0,30.15,WSW,247,6.0,8.0,67,0.00,,,0.00,,2013-01-19 01:02:00,
2013-01-18 20:12:00,33.0,23.0,30.15,WSW,247,6.0,8.0,67,0.00,,,0.00,,2013-01-19 01:12:00,
2013-01-18 20:22:00,33.0,23.0,30.13,South,180,8.0,10.0,67,0.00,,,0.00,,2013-01-19 01:22:00,
2013-01-18 20:33:00,34.0,24.0,30.15,SSW,202,9.0,14.0,66,0.00,,,0.00,,2013-01-19 01:33:00,
2013-01-18 20:42:00,34.0,24.0,30.15,SSW,202,9.0,14.0,66,0.00,,,0.00,,2013-01-19 01:42:00,
2013-01-18 20:52:00,34.0,24.0,30.11,ENE,67,7.0,8.0,66,0.00,,,0.00,,2013-01-19 01:52:00,
2013-01-18 21:03:00,34.0,23.0,30.13,SE,135,7.0,7.0,65,0.00,,,0.00,,2013-01-19 02:03:00,
2013-01-18 21:12:00,34.0,23.0,30.13,SE,135,7.0,7.0,65,0.00,,,0.00,,2013-01-19 02:12:00,
2013-01-18 21:23:00,35.0,24.0,30.11,SW,225,10.0,22.0,65,0.00,,,0.00,,2013-01-19 02:23:00,
2013-01-18 21:33:00,35.0,24.0,30.11,SW,225,8.0,9.0,65,0.00,,,0.00,,2013-01-19 02:33:00,
2013-01-18 21:43:00,35.0,24.0,30.11,SW,225,8.0,9.0,65,0.00,,,0.00,,2013-01-19 02:43:00,
2013-01-18 21:53:00,35.0,24.0,30.11,WSW,247,9.0,16.0,65,0.00,,,0.00,,2013-01-19 02:53:00,
2013-01-18 22:03:00,35.0,24.0,30.10,WSW,247,8.0,12.0,65,0.00,,,0.00,,2013-01-19 03:03:00,
2013-01-18 22:12:00,35.0,24.0,30.10,WSW,247,8.0,12.0,65,0.00,,,0.00,,2013-01-19 03:12:00,
2013-01-18 22:22:00,36.0,25.0,30.10,WSW,247,7.0,12.0,65,0.00,,,0.00,,2013-01-19 03:22:00,
2013-01-18 22:33:00,36.0,25.0,30.10,SW,225,0.0,21.0,65,0.00,,,0.00,,2013-01-19 03:33:00,
2013-01-18 22:43:00,36.0,25.0,30.10,SW,225,0.0,21.0,65,0.00,,,0.00,,2013-01-19 03:43:00,
2013-01-18 22:52:00,36.0,25.0,30.10,WSW,247,12.0,14.0,65,0.00,,,0.00,,2013-01-19 03:52:00,
2013-01-18 23:02:00,36.0,25.0,30.09,WSW,247,11.0,13.0,65,0.00,,,0.00,,2013-01-19 04:02:00,
2013-01-18 23:12:00,36.0,25.0,30.09,WSW,247,11.0,13.0,65,0.00,,,0.00,,2013-01-19 04:12:00,
2013-01-18 23:22:00,35.0,25.0,30.09,SW,225,8.0,11.0,66,0.00,,,0.00,,2013-01-19 04:22:00,
2013-01-18 23:32:00,35.0,25.0,30.09,SW,225,8.0,11.0,67,0.00,,,0.00,,2013-01-19 04:32:00,
2013-01-18 23:42:00,35.0,25.0,30.09,SW,225,8.0,11.0,67,0.00,,,0.00,,2013-01-19 04:42:00,
2013-01-18 23:52:00,35.0,25.0,30.08,SW,225,9.0,15.0,67,0.00,,,0.00,,2013-01-19 04:52:00,